Regional Weather Roundup
Issued by NWS

Home | Current Version | Previous Version | Text Only | Print | Product List | Glossary Off
Versions: 1 2 3 4 5 6 7 8 9 10 11 12 13 14 15 16 17 18 19 20 21 22 23 24 25 26 27 28 29 30 31 32 33 34 35 36 37 38 39 40 41 42 43 44 45 46 47 48 49 50

000
ASUS43 KMPX 140901
RWRMN
WEATHER ROUNDUP FOR MINNESOTA
NATIONAL WEATHER SERVICE TWIN CITIES/CHANHASSEN MN
300 AM CST THU DEC 14 2017


NOTE: "FAIR" INDICATES FEW OR NO CLOUDS BELOW 12,000 FEET WITH NO
SIGNIFICANT WEATHER AND/OR OBSTRUCTIONS TO VISIBILITY. N/A MEANS
CURRENT SKY AND/OR WEATHER CONDITIONS ARE NOT AVAILABLE.

MNZ060>063-068>070-141000-
   Twin Cities Metro

CITY           SKY/WX    TMP DP  RH WIND       PRES   REMARKS
TWIN CITIES    CLOUDY    20  16  84 W6        30.01R WCI  12
ST PAUL        CLOUDY    20  17  88 CALM      30.02R
CRYSTAL        CLOUDY    18  11  74 W6        30.00R WCI  10
BLAINE         CLOUDY    19  16  86 W7        29.99S WCI  10
LAKEVILLE        N/A     14  12  92 W5        30.00R WCI   6
EDEN PRAIRIE   CLOUDY    19  14  81 NW5       30.00R WCI  12
SOUTH ST PAUL  CLOUDY    19  15  84 CALM      30.01R
LAKE ELMO      CLOUDY    19  18  93 CALM      30.00R
$$
MNZ001>005-007-008-013>017-022>024-027-028-141000-
   Northwest Minnesota

CITY           SKY/WX    TMP DP  RH WIND       PRES   REMARKS
BEMIDJI        LGT SNOW  11   8  87 W3        29.94F
HALLOCK        CLOUDY    18  14  86 W8        29.98R WCI   7
ROSEAU         LGT SNOW  12   9  85 SW3       29.95S
WARROAD        LGT SNOW  10   7  85 CALM      29.94S
CROOKSTON      CLOUDY    16  12  86 NW9       30.01S WCI   4
FOSSTON        FLURRIES  12  10  92 W5        29.97R WCI   4
DETROIT LAKES  FLURRIES  18  14  86 NW5       29.98R WCI  11
MOORHEAD       MIX PCPN  18  12  79 CALM      30.02S
PARK RAPIDS    CLOUDY    13  10  88 W8        29.95R WCI   2
MAHNOMEN       FLURRIES  14  11  89 W8        29.97F WCI   2
$$
MNZ006-009>011-018-025>026-141000-
   North Central Minnesota

CITY           SKY/WX    TMP DP  RH WIND       PRES   REMARKS
BAUDETTE       CLOUDY     8   5  87 W5        29.93F WCI   0
FLAG ISLAND    FLURRIES  10   7  85 W5        29.93S WCI   2
INTL FALLS     CLOUDY    13  10  88 W5        29.93R WCI   5
WASKISH        FLURRIES  12  10  92 W8        29.95S WCI   1
BIG FORK       FLURRIES  14  10  85 CALM      29.93S
LONGVILLE      LGT SNOW  12  10  92 CALM      29.95F
GRAND RAPIDS   FLURRIES  14  11  87 W6        29.95S WCI   5
CRANE LAKE     FLURRIES  12  10  92 CALM      29.95S
ORR            CLOUDY    12  10  92 W5        29.89F WCI   4
COOK           CLOUDY    14  12  92 W7        29.91F WCI   4
WALKER         LGT SNOW  13  10  87 W6        29.96F WCI   3
$$
MNZ012-019>021-037-141000-
   Northeast Minnesota

CITY           SKY/WX    TMP DP  RH WIND       PRES   REMARKS
DULUTH         CLOUDY     9   7  92 NW6       29.92R WCI  -1
ELY            FLURRIES  10   9  92 CALM      29.90R
HIBBING        LGT SNOW  14  11  87 CALM      29.92R FOG
EVELETH        CLOUDY    13   9  83 NW5       29.93S WCI   5
DULUTH HARBOR  PTCLDY    10   9  92 SW5       29.99R WCI   2
TWO HARBORS    CLEAR     10   7  85 W6        29.92R WCI   1
SILVER BAY     CLEAR    -15 -18  84 CALM      29.91R
GRAND MARAIS     N/A      6  -2  69 CALM      29.95S
G MARAIS ARPRT CLEAR     -2  -9  71 CALM      29.84R
$$
MNZ029>031-032-039>041-046>048-054>057-064-141000-
   West Central Minnesota

CITY           SKY/WX    TMP DP  RH WIND       PRES   REMARKS
FERGUS FALLS   CLOUDY    16  12  86 NW7       30.03R WCI   6
WHEATON        CLOUDY    19  16  86 N5        30.02F WCI  13
MORRIS         CLOUDY    19  16  86 NW8       29.98F WCI   9
ALEXANDRIA     CLOUDY    18  14  84 NW8       29.96F WCI   8
ELBOW LAKE     CLOUDY    16  13  90 NW8       30.00R WCI   5
WADENA         CLOUDY    16  10  79 W3        29.97R
GLENWOOD       PTCLDY    18  16  93 NW7       29.97S WCI   8
APPLETON         N/A     21  16  79 N8        30.00F WCI  12
BENSON         CLOUDY    19  16  86 N7        30.01S WCI  10
ORTONVILLE     CLOUDY    21  16  79 N3        29.99F
MADISON        CLOUDY    23  18  80 CALM      30.01F
WILLMAR        CLOUDY    19  16  86 CALM      30.00S
$$
MNZ033>034-036-042>043-049>051-058-059-141000-
   Central Minnesota

CITY           SKY/WX    TMP DP  RH WIND       PRES   REMARKS
ST CLOUD       CLOUDY    14  11  87 NW7       30.01R WCI   4
SAUK CENTRE    CLOUDY    15  13  89 CALM      29.97F
PAYNESVILLE    CLOUDY    15  14  95 W3        30.00S
AITKIN         CLOUDY    14  10  85 W3        29.96R
PINE RIVER     FLURRIES  12   9  85 W3        30.00S
BRAINERD       CLOUDY    16  11  80 NW6       29.98R WCI   7
STAPLES        FLURRIES  14  10  85 CALM      29.97R
LONG PRAIRIE   CLOUDY    18  12  79 SW5       29.97S WCI  11
LITTLE FALLS   CLOUDY    10   5  79 CALM      29.99F
LITCHFIELD     CLOUDY    14  12  92 CALM      30.00S
BUFFALO        CLOUDY    17  13  82 W5        30.02R WCI  10
MAPLE LAKE     CLOUDY    17  14  88 NW5       30.01S WCI  10
HUTCHINSON     PTCLDY    12   9  88 CALM      30.01S
$$
MNZ037-044-045-052-053-141000-
   East Central Minnesota

CITY           SKY/WX    TMP DP  RH WIND       PRES   REMARKS
PRINCETON      CLOUDY    14  10  85 W3        30.00R
MORA           CLOUDY     9   5  85 CALM      30.00R
CAMBRIDGE      FLURRIES  16  10  79 W3        30.00R
RUSH CITY      CLOUDY    15  13  92 W3        30.00R
MOOSE LAKE     CLOUDY    18  12  79 CALM      29.95S
HINCKLEY       CLOUDY    18  16  93 CALM      29.98R
CLOQUET        CLOUDY     9   5  85 W3        29.94R
MCGREGOR       CLOUDY    18  14  86 W5        29.97R WCI  11
$$
MNZ071>073-080-081-089-090-097-098-141000-
   Southwest Minnesota

CITY           SKY/WX    TMP DP  RH WIND       PRES   REMARKS
MONTEVIDEO     CLOUDY    19  16  86 N5        30.01S WCI  13
GRANITE FALLS  CLOUDY    22  17  81 W9        30.03S WCI  12
CANBY          CLOUDY    23  19  85 CALM      30.01S
MARSHALL       CLOUDY    20  16  84 N9        30.01R WCI   9
REDWOOD FALLS  CLOUDY    20  12  71 CALM      30.00R
OLIVIA         CLOUDY    19  16  86 CALM      29.99S
PIPESTONE      CLOUDY    23  21  93 CALM      29.96F
WINDOM           N/A     21   9  58 CALM      29.98S
WORTHINGTON    CLOUDY    21  17  84 N10       29.98S WCI  10
JACKSON        CLOUDY    21  16  79 MISG      29.98S
SLAYTON        CLOUDY    21  19  91 N7        29.99S WCI  12
$$
MNZ065>067-074>077-082>085-091>093-141000-
   South Central Minnesota

CITY           SKY/WX    TMP DP  RH WIND       PRES   REMARKS
MANKATO        PTCLDY    13  11  92 NW6       30.01R WCI   4
NEW ULM        PTCLDY    14  10  85 CALM      30.01R
ST JAMES       CLOUDY    14  10  85 CALM      30.01S
FAIRMONT       CLOUDY    17  13  84 N3        30.00S
GLENCOE        CLEAR     15  12  90 NW3       30.00S
FARIBAULT      PTCLDY    10   9  92 CALM      30.00R
OWATONNA       PTCLDY    10   7  85 CALM      29.98S
WASECA         CLOUDY    12  10  92 CALM      30.00S
ALBERT LEA     CLOUDY    14  10  85 CALM      29.97S
$$
MNZ078>079-086>088-094>096-141000-
   Southeast Minnesota

CITY           SKY/WX    TMP DP  RH WIND       PRES   REMARKS
ROCHESTER      CLOUDY    11  10  96 NW6       29.96S WCI   1
RED WING       PTCLDY     7   1  78 CALM      30.00S
STANTON        PTCLDY     9   6  88 CALM      29.99R
DODGE CENTER   PTCLDY    12  10  92 NW3       29.96S
WINONA           N/A     12  10  92 CALM      30.02S
AUSTIN         CLOUDY    12  10  92 CALM      29.97R
PRESTON        CLEAR     12   9  87 N3        29.97S
$$
ABBREVIATIONS USED IN REMARKS
   TC - TEMPERATURES IN CELSIUS
  WCI - WIND CHILL INDEX
   HX - HEAT INDEX
  VSB - VISIBILITY
$$




USA.gov is the U.S. government's official web portal to all federal, state and local government web resources and services.